When you browse on this site, cookies collect data to enhance your experience and personalize the content and advertising you see.
Visit our Privacy Policy to learn more. By continuing to use the site, you agree to this use of cookies and data.
  • In Romania
  • List of Countries
  • For 7 days
  • Water Temperature
  • Satellite Maps
  • Weather Map
  • Weather Widgets
  • user-avatar
    Login

    Hourly Weather Kastoria

    Today, 25 March, Monday

    Time Temperature Precipitation Wind Pressure Humidity
    00:00 +8°C° 0 mm 0 mps 703 mmHg 58%
    01:00 +8°C° 0 mm 0 mps 703 mmHg 62%
    02:00 +8°C° 0 mm 0 mps 703 mmHg 63%
    03:00 +8°C° 0 mm 0 mps 702 mmHg 64%
    04:00 +7°C° 0 mm 0 mps 702 mmHg 65%
    05:00 +9°C° 0 mm 1 mps 702 mmHg 63%
    06:00 +10°C° 0 mm 1 mps 702 mmHg 62%
    07:00 +11°C° 0 mm 1 mps 702 mmHg 62%
    08:00 +13°C° 0 mm 1 mps 702 mmHg 56%
    09:00 +15°C° 0 mm 1 mps 702 mmHg 49%
    10:00 +18°C° 0 mm 1 mps 702 mmHg 43%
    11:00 +18°C° 0 mm 2 mps 702 mmHg 39%
    12:00 +19°C° 0 mm 2 mps 701 mmHg 35%
    13:00 +20°C° 0 mm 2 mps 701 mmHg 31%
    14:00 +19°C° 0 mm 3 mps 701 mmHg 32%
    15:00 +19°C° 0 mm 3 mps 700 mmHg 33%
    16:00 +19°C° 0 mm 4 mps 699 mmHg 34%
    17:00 +17°C° 0 mm 3 mps 699 mmHg 40%
    18:00 +13°C° 0 mm 3 mps 699 mmHg 46%
    19:00 +12°C° 0 mm 2 mps 698 mmHg 52%
    20:00 +12°C° 0 mm 2 mps 698 mmHg 55%
    21:00 +10°C° 0 mm 2 mps 698 mmHg 59%
    22:00 +9°C° 0 mm 2 mps 698 mmHg 63%
    23:00 +9°C° 0 mm 2 mps 698 mmHg 66%

    Tomorrow, 26 March, Tuesday

    Time Temperature Precipitation Wind Pressure Humidity
    00:00 +9°C° 0 mm 1 mps 698 mmHg 68%
    01:00 +9°C° 0 mm 1 mps 698 mmHg 71%
    02:00 +9°C° 0 mm 1 mps 698 mmHg 72%
    03:00 +8°C° 0 mm 1 mps 697 mmHg 73%
    04:00 +8°C° 0 mm 1 mps 697 mmHg 74%
    05:00 +9°C° 0 mm 1 mps 698 mmHg 72%
    06:00 +9°C° 0 mm 1 mps 698 mmHg 70%
    07:00 +10°C° 0 mm 1 mps 699 mmHg 69%
    08:00 +10°C° 0 mm 2 mps 699 mmHg 62%
    09:00 +13°C° 0 mm 2 mps 699 mmHg 56%
    10:00 +14°C° 0 mm 2 mps 699 mmHg 49%
    11:00 +14°C° 0 mm 3 mps 699 mmHg 47%
    12:00 +14°C° 0 mm 3 mps 699 mmHg 46%
    13:00 +16°C° 0 mm 3 mps 699 mmHg 44%
    14:00 +16°C° 0.1 mm 3 mps 699 mmHg 46%
    15:00 +14°C° 0.1 mm 3 mps 699 mmHg 49%
    16:00 +14°C° 0.1 mm 3 mps 699 mmHg 52%
    17:00 +12°C° 0.2 mm 3 mps 700 mmHg 56%
    18:00 +12°C° 0.2 mm 2 mps 700 mmHg 61%
    19:00 +10°C° 0.2 mm 2 mps 701 mmHg 66%
    20:00 +9°C° 0.1 mm 2 mps 701 mmHg 66%
    21:00 +9°C° 0.1 mm 2 mps 702 mmHg 66%
    22:00 +8°C° 0.1 mm 2 mps 702 mmHg 66%
    23:00 +7°C° 0.1 mm 2 mps 703 mmHg 67%

    Day after tomorrow, 27 March, Wednesday

    Time Temperature Precipitation Wind Pressure Humidity
    00:00 +7°C° 0.1 mm 2 mps 703 mmHg 69%
    01:00 +6°C° 0.1 mm 2 mps 703 mmHg 70%
    02:00 +6°C° 0.1 mm 2 mps 703 mmHg 70%
    03:00 +6°C° 0.1 mm 2 mps 703 mmHg 70%
    04:00 +5°C° 0.1 mm 2 mps 703 mmHg 70%
    05:00 +6°C° 0 mm 2 mps 703 mmHg 68%
    06:00 +6°C° 0 mm 2 mps 704 mmHg 66%
    07:00 +6°C° 0 mm 2 mps 704 mmHg 65%
    08:00 +7°C° 0 mm 2 mps 704 mmHg 61%
    09:00 +8°C° 0 mm 2 mps 705 mmHg 57%
    10:00 +10°C° 0 mm 2 mps 705 mmHg 54%
    11:00 +10°C° 0 mm 2 mps 705 mmHg 54%
    12:00 +12°C° 0 mm 2 mps 705 mmHg 54%
    13:00 +12°C° 0 mm 2 mps 705 mmHg 55%
    14:00 +12°C° 0 mm 2 mps 704 mmHg 56%
    15:00 +12°C° 0 mm 2 mps 704 mmHg 58%
    16:00 +12°C° 0 mm 2 mps 704 mmHg 60%
    17:00 +10°C° 0.3 mm 2 mps 704 mmHg 65%
    18:00 +9°C° 0.3 mm 2 mps 704 mmHg 69%
    19:00 +8°C° 0.3 mm 2 mps 705 mmHg 73%
    20:00 +8°C° 0.4 mm 2 mps 705 mmHg 74%
    21:00 +7°C° 0.4 mm 2 mps 705 mmHg 75%
    22:00 +7°C° 0.4 mm 2 mps 705 mmHg 76%
    23:00 +6°C° 0.1 mm 2 mps 705 mmHg 76%

    28 March, Thursday

    Time Temperature Precipitation Wind Pressure Humidity
    00:00 +6°C° 0.1 mm 2 mps 705 mmHg 75%
    01:00 +5°C° 0.1 mm 2 mps 705 mmHg 75%
    02:00 +5°C° 0.1 mm 2 mps 705 mmHg 75%
    03:00 +5°C° 0.1 mm 2 mps 705 mmHg 75%
    04:00 +4°C° 0.1 mm 2 mps 704 mmHg 75%
    05:00 +3°C° 0.1 mm 3 mps 705 mmHg 75%
    06:00 +3°C° 0.1 mm 3 mps 705 mmHg 75%
    07:00 +3°C° 0.1 mm 3 mps 705 mmHg 75%
    08:00 +4°C° 0.2 mm 3 mps 705 mmHg 73%
    09:00 +4°C° 0.2 mm 3 mps 705 mmHg 72%
    10:00 +5°C° 0.2 mm 3 mps 706 mmHg 70%
    11:00 +7°C° 0.1 mm 3 mps 705 mmHg 69%
    12:00 +6°C° 0.1 mm 4 mps 705 mmHg 68%
    13:00 +7°C° 0.1 mm 4 mps 705 mmHg 68%
    14:00 +8°C° 0 mm 3 mps 705 mmHg 68%
    15:00 +8°C° 0 mm 3 mps 705 mmHg 68%
    16:00 +8°C° 0 mm 3 mps 705 mmHg 68%
    17:00 +7°C° 0 mm 2 mps 705 mmHg 73%
    18:00 +6°C° 0 mm 2 mps 705 mmHg 77%
    19:00 +6°C° 0 mm 1 mps 705 mmHg 82%
    20:00 +6°C° 0.1 mm 1 mps 706 mmHg 83%
    21:00 +6°C° 0.1 mm 1 mps 706 mmHg 84%
    22:00 +6°C° 0.1 mm 1 mps 707 mmHg 85%
    23:00 +5°C° 0.1 mm 1 mps 707 mmHg 86%

    29 March, Friday

    Time Temperature Precipitation Wind Pressure Humidity
    00:00 +5°C° 0.1 mm 1 mps 707 mmHg 88%
    01:00 +4°C° 0.1 mm 2 mps 707 mmHg 89%
    02:00 +4°C° 0.1 mm 2 mps 707 mmHg 90%
    03:00 +4°C° 0.1 mm 1 mps 707 mmHg 91%
    04:00 +4°C° 0.1 mm 1 mps 707 mmHg 92%
    05:00 +3°C° 0.1 mm 2 mps 707 mmHg 90%
    06:00 +4°C° 0.1 mm 2 mps 708 mmHg 87%
    07:00 +4°C° 0.1 mm 2 mps 708 mmHg 84%
    08:00 +5°C° 0.1 mm 2 mps 708 mmHg 79%
    09:00 +5°C° 0.1 mm 3 mps 708 mmHg 73%
    10:00 +5°C° 0.1 mm 3 mps 708 mmHg 67%
    11:00 +7°C° 0 mm 3 mps 708 mmHg 63%
    12:00 +8°C° 0 mm 3 mps 707 mmHg 59%
    13:00 +7°C° 0 mm 4 mps 707 mmHg 55%
    14:00 +8°C° 0 mm 4 mps 707 mmHg 53%
    15:00 +8°C° 0 mm 4 mps 707 mmHg 50%
    16:00 +8°C° 0 mm 4 mps 706 mmHg 47%
    17:00 +8°C° 0 mm 3 mps 706 mmHg 50%
    18:00 +5°C° 0 mm 3 mps 707 mmHg 53%
    19:00 +4°C° 0 mm 2 mps 707 mmHg 57%
    20:00 +4°C° 0 mm 2 mps 707 mmHg 57%
    21:00 +3°C° 0 mm 2 mps 707 mmHg 57%
    22:00 +3°C° 0 mm 2 mps 707 mmHg 57%
    23:00 +2°C° 0 mm 2 mps 707 mmHg 59%

    30 March, Saturday

    Time Temperature Precipitation Wind Pressure Humidity
    00:00 +2°C° 0 mm 2 mps 707 mmHg 61%
    01:00 +1°C° 0 mm 2 mps 707 mmHg 63%
    02:00 +1°C° 0 mm 2 mps 707 mmHg 65%
    03:00 +1°C° 0 mm 2 mps 707 mmHg 67%
    04:00 +1°C° 0 mm 2 mps 707 mmHg 69%
    05:00 +2°C° 0 mm 2 mps 707 mmHg 66%
    06:00 +3°C° 0 mm 2 mps 707 mmHg 62%
    07:00 +4°C° 0 mm 2 mps 707 mmHg 58%
    08:00 +5°C° 0 mm 3 mps 707 mmHg 53%
    09:00 +8°C° 0 mm 3 mps 707 mmHg 48%
    10:00 +10°C° 0 mm 3 mps 707 mmHg 43%
    11:00 +11°C° 0 mm 3 mps 707 mmHg 41%
    12:00 +12°C° 0 mm 4 mps 706 mmHg 40%
    13:00 +13°C° 0 mm 4 mps 706 mmHg 38%
    14:00 +13°C° 0 mm 4 mps 706 mmHg 40%
    15:00 +12°C° 0 mm 3 mps 705 mmHg 42%
    16:00 +12°C° 0 mm 3 mps 705 mmHg 44%
    17:00 +10°C° 0 mm 3 mps 705 mmHg 49%
    18:00 +9°C° 0 mm 2 mps 705 mmHg 55%
    19:00 +7°C° 0 mm 2 mps 704 mmHg 60%
    20:00 +6°C° 0 mm 2 mps 704 mmHg 61%
    21:00 +6°C° 0 mm 2 mps 704 mmHg 61%
    22:00 +5°C° 0 mm 2 mps 704 mmHg 62%
    23:00 +5°C° 0 mm 2 mps 704 mmHg 64%
    Show more